RH
3 5 9 10 8 7 6 6 6 5 4 4 4 4 4 5 5 5 5 5 5 6 6 7 7 7 8 9 10 10 11 12 12 12 11 10 9 9 9 8 9 9
3 4 7 9 8 6 6 6 5 5 4 4 4 4 4 5 6 7 7 8 9 9 10 10 11 11 13 14 15 16 17 18 18 18 17 17 15 14 12 11 11 11
3 4 5 8 8 7 5 5 5 5 4 4 4 4 4 5 7 9 9 11 13 13 13 14 15 16 17 18 19 20 20 20 20 20 21 21 21 20 19 18 17 17
3 3 4 6 8 7 6 5 5 5 4 4 4 4 4 5 7 10 11 13 14 15 15 16 17 18 19 19 19 19 19 18 19 20 21 21 22 23 23 23 23 24
3 3 3 5 7 7 6 5 5 5 4 4 4 4 4 5 7 9 11 12 13 14 15 16 17 17 17 17 16 15 14 14 15 16 17 19 20 22 24 25 26 26
3 3 3 4 6 7 6 5 5 4 5 4 4 4 4 4 5 7 8 10 10 11 12 13 13 13 13 13 12 11 10 11 11 11 12 13 14 17 20 22 24 25
3 3 3 4 6 7 6 5 5 4 4 4 4 4 4 4 5 5 6 7 7 8 8 8 9 10 10 10 10 10 10 10 9 9 9 9 10 12 14 17 20 21
3 3 3 3 5 7 7 5 5 4 4 4 4 4 4 4 4 4 5 5 5 5 5 6 7 7 8 9 10 11 10 10 10 10 10 10 11 12 11 12 14 17
4 3 3 3 4 6 7 5 4 4 4 4 4 4 4 4 4 4 4 4 4 4 5 6 6 7 8 9 11 12 12 12 12 12 13 13 15 15 14 13 13 14
4 4 3 3 4 5 6 6 5 4 4 4 4 4 4 4 4 4 4 4 4 4 6 7 8 8 9 10 12 12 13 14 14 15 16 17 18 19 18 17 15 15
5 5 4 3 4 5 6 6 5 4 4 4 4 4 4 4 4 4 4 4 4 4 7 9 9 10 11 12 13 13 13 15 16 18 20 21 23 23 21 20 19 17
5 5 5 4 4 4 5 6 6 5 4 4 4 4 4 4 4 4 4 5 4 4 6 9 10 11 12 12 12 13 14 16 18 22 25 27 27 26 23 22 20 19
5 5 5 5 4 4 4 5 6 5 4 4 4 4 4 4 4 4 4 4 4 3 5 9 11 10 11 12 12 12 14 18 23 27 29 31 31 28 26 23 22 20
4 4 5 5 4 3 3 4 6 6 5 5 4 4 4 4 4 4 4 4 4 3 5 8 10 10 11 11 11 13 17 21 26 30 33 34 33 30 25 22 21 20
7 4 4 5 5 4 3 4 5 5 5 5 5 5 4 4 4 4 4 4 3 3 4 7 10 10 10 10 11 16 21 24 27 32 36 36 33 28 22 19 18 18
11 8 5 5 5 5 4 4 4 5 6 5 5 5 5 4 4 4 4 4 4 3 4 6 9 10 9 9 12 19 25 27 28 33 37 36 31 23 17 14 14 15
11 11 10 7 5 5 4 4 4 5 5 5 5 5 5 5 4 4 4 4 3 3 3 5 8 9 9 10 14 21 27 28 30 35 39 36 27 18 13 12 11 12
9 10 11 11 9 7 5 4 4 4 5 5 5 5 6 5 4 4 4 4 3 3 3 5 7 8 8 10 16 23 28 29 30 36 39 33 22 14 11 10 10 11
7 8 9 11 12 11 9 6 5 5 5 5 5 5 6 6 5 4 4 3 3 3 3 4 6 7 8 11 17 24 28 29 30 36 39 32 19 12 11 10 11 12
7 8 8 9 10 11 11 10 8 7 7 6 6 6 6 6 5 4 3 3 3 3 3 4 5 6 7 12 18 25 28 28 30 36 40 32 19 13 13 12 12 12
11 11 11 10 9 8 9 10 10 9 9 7 6 6 6 6 5 3 3 3 3 3 3 4 5 5 8 13 20 27 30 30 30 37 42 35 24 18 16 16 15 13
18 17 17 15 11 8 7 8 9 9 9 8 7 6 6 5 4 3 3 3 3 3 3 4 4 5 9 16 24 30 32 31 32 38 43 39 30 24 21 21 19 15
20 20 20 19 14 9 7 6 6 8 9 8 8 6 5 5 3 3 4 3 3 3 3 4 5 6 13 21 28 33 35 34 36 41 44 41 36 30 27 25 23 19
18 17 19 19 15 10 9 7 5 6 8 8 8 6 4 4 3 3 3 3 3 3 3 5 5 8 17 26 31 35 37 37 40 43 45 43 38 33 30 27 26 24
16 14 15 17 14 11 9 7 5 5 6 6 6 5 4 3 3 3 3 3 3 4 4 6 8 13 23 32 35 38 39 40 42 45 46 44 40 35 33 31 30 28
17 12 11 12 12 11 9 7 4 4 5 5 5 4 3 4 3 3 3 3 4 5 7 10 14 21 31 37 38 40 41 42 44 46 47 45 42 39 36 35 34 31
Wind_Speed
24 22 22 20 19 19 18 18 18 18 18 17 16 14 13 13 12 12 12 12 12 12 12 11 11 10 10 9 9 9 9 8 7 7 6 6 5 5 5 6 6 6
26 25 23 21 19 18 18 18 18 18 18 18 16 15 14 14 13 13 13 13 13 13 13 13 12 12 11 11 10 10 9 8 7 6 5 5 5 4 4 4 4 4
28 26 25 23 21 19 19 19 19 19 19 18 17 16 16 15 15 14 14 15 15 15 14 14 13 13 12 11 10 9 8 7 6 5 4 4 3 3 3 3 2 2
29 28 27 26 24 22 20 20 20 20 20 19 18 18 18 18 17 17 16 17 16 16 15 14 14 13 12 10 9 8 6 5 4 4 3 2 2 2 2 2 1 0
31 30 29 27 25 23 20 20 21 22 21 21 20 20 20 20 19 19 18 18 17 16 15 15 14 13 11 10 8 7 5 4 4 3 3 3 3 2 2 2 2 1
33 32 31 29 26 23 22 22 23 23 23 23 22 22 22 22 21 21 20 19 18 17 16 15 14 13 12 10 9 8 6 6 5 6 5 5 5 5 5 4 4 3
34 34 32 30 28 25 23 23 24 24 24 24 23 23 23 23 22 22 21 20 18 17 16 15 14 14 13 12 10 9 8 7 8 8 8 8 8 8 8 7 7 6
35 35 34 32 30 27 25 24 24 24 25 24 24 24 24 24 23 22 21 20 19 19 18 16 16 15 14 13 11 10 9 9 9 9 9 10 10 10 9 9 9 9
35 35 35 34 32 29 27 25 25 25 25 25 25 25 25 24 24 23 22 21 20 20 19 18 17 16 15 14 13 11 10 10 10 11 10 11 12 11 11 11 11 11
35 35 35 35 33 31 29 27 27 26 26 25 26 25 25 25 25 24 22 22 21 20 20 19 18 18 17 15 14 12 11 11 11 12 12 12 13 13 12 12 13 12
34 34 35 35 34 33 31 30 28 27 26 26 26 26 26 26 25 24 23 22 22 22 21 21 20 19 17 16 14 13 12 12 12 13 13 13 14 13 13 14 14 14
32 33 35 35 35 35 33 32 30 28 28 27 27 27 27 27 26 25 24 24 24 23 23 22 21 19 18 17 15 14 13 13 14 14 14 14 14 14 14 15 15 14
31 32 34 35 36 36 35 33 31 30 29 29 28 28 28 27 27 26 26 25 25 25 24 23 22 20 19 18 16 15 14 14 14 15 15 14 14 14 15 15 16 15
31 32 34 35 36 36 35 34 32 32 31 30 30 29 28 28 28 28 27 27 26 25 25 24 23 21 20 19 17 16 15 15 15 16 16 15 15 15 15 15 16 15
33 33 34 35 36 36 35 35 34 33 32 31 30 30 29 29 29 29 28 27 26 26 26 25 24 22 21 20 18 17 16 16 15 15 16 16 16 15 15 15 16 15
34 34 34 35 35 35 35 35 35 34 33 32 30 30 31 31 30 30 30 29 28 27 27 26 25 24 22 21 19 18 17 16 15 16 16 16 16 15 15 15 16 15
36 35 35 35 35 35 36 36 36 35 34 33 32 31 32 32 32 32 31 31 29 28 28 27 26 25 24 22 20 19 18 17 16 16 16 16 16 15 15 15 14 15
37 37 36 35 35 35 36 36 36 36 35 34 33 32 32 32 32 32 32 32 31 29 28 27 27 26 24 22 20 19 19 18 18 17 16 16 16 15 14 14 14 14
38 37 37 36 35 35 36 37 37 36 35 34 33 33 33 33 32 32 32 32 31 29 28 28 27 26 24 23 21 20 20 19 19 18 16 16 16 15 14 14 14 14
38 37 36 36 36 36 37 37 36 36 35 34 34 34 33 33 32 32 32 31 30 29 29 28 27 26 25 23 21 21 20 20 19 18 17 16 16 15 14 14 14 14
37 37 37 36 36 37 37 37 36 36 35 34 34 34 33 32 32 31 31 31 30 29 29 28 27 26 25 23 22 21 21 20 20 18 17 17 17 16 14 14 14 14
36 36 37 37 36 36 35 35 36 36 35 34 34 34 33 33 31 30 30 30 30 29 28 27 27 26 25 23 22 21 20 20 20 19 18 18 18 17 15 15 14 14
33 34 36 36 36 35 33 33 34 36 36 35 34 34 33 31 30 30 30 30 30 29 28 27 27 26 25 23 23 21 21 20 20 19 19 19 19 18 16 15 14 15
32 33 34 36 35 34 32 32 33 35 35 35 34 33 31 30 30 30 30 30 29 28 27 27 28 27 25 24 23 22 21 21 20 20 20 20 20 18 16 15 15 16
32 32 33 35 34 33 32 32 33 34 34 34 33 32 31 30 30 29 29 29 28 27 27 28 28 27 25 25 24 23 22 22 21 20 20 20 20 18 17 16 16 16
32 32 32 33 34 33 33 32 33 33 33 32 31 31 30 30 29 28 28 28 28 28 28 28 28 27 26 26 25 25 24 23 22 20 20 20 20 19 17 17 17 17
Wind_Direction
194 187 188 192 194 195 195 191 188 185 184 185 185 182 178 177 179 179 178 176 173 169 168 168 167 166 163 159 154 150 147 146 146 149 150 154 164 176 184 186 183 184
197 191 192 195 196 196 196 194 191 188 186 187 185 182 180 180 180 179 177 173 169 167 165 163 162 160 157 154 150 146 142 140 142 142 140 141 148 159 173 183 190 194
200 196 196 198 197 196 195 194 193 192 189 187 185 182 182 182 181 180 177 173 170 168 166 164 163 161 159 157 154 150 146 145 145 144 142 141 142 148 157 173 191 195
202 200 200 201 200 198 194 192 194 194 191 189 187 184 184 185 184 183 181 178 175 173 171 169 168 167 166 164 163 160 157 159 162 161 164 172 175 168 165 181 207 222
202 202 203 204 203 200 194 192 195 195 193 191 189 187 187 188 188 188 187 185 183 180 178 177 177 177 177 177 179 181 182 190 205 212 216 231 245 246 240 244 257 290
202 203 204 205 205 202 197 195 196 197 196 194 191 189 190 192 192 192 194 194 192 189 188 188 188 190 192 193 197 202 207 215 228 238 244 250 257 261 264 267 267 278
203 202 203 205 206 203 200 198 198 199 199 197 194 193 194 195 196 197 199 200 199 198 199 198 199 201 204 206 208 212 220 228 236 243 249 255 260 261 264 266 266 270
205 203 203 205 205 204 203 201 200 201 202 200 198 198 198 198 200 201 203 203 203 204 204 205 206 209 212 214 215 218 225 234 243 248 251 255 261 262 262 261 260 264
209 206 205 205 205 204 203 202 202 204 204 203 203 202 202 202 204 205 205 206 207 207 207 208 209 211 215 218 221 225 230 237 246 252 254 255 261 264 263 260 258 260
213 210 210 208 207 205 204 204 205 205 205 206 206 206 205 206 207 207 208 209 210 210 210 210 212 214 217 221 225 231 237 243 248 252 255 256 261 265 264 262 260 260
216 215 214 212 210 209 206 206 207 207 207 208 208 208 209 210 210 211 212 213 214 214 213 214 215 218 220 224 229 234 241 246 250 252 254 256 261 265 265 262 261 261
219 218 217 216 215 213 210 209 208 208 209 210 210 210 212 213 213 214 215 216 217 217 215 217 219 221 224 228 232 237 242 246 251 254 256 257 260 264 266 264 263 263
219 219 220 219 218 217 216 213 211 210 211 211 212 212 213 214 215 216 218 219 220 219 217 219 221 223 227 232 235 239 243 245 250 256 261 263 263 265 267 266 265 264
220 219 220 221 221 221 220 218 216 214 214 214 214 214 215 216 217 218 220 222 222 220 219 220 222 224 228 233 237 240 243 246 250 258 265 269 271 270 269 268 265 263
220 219 220 221 222 223 223 222 220 219 218 217 217 217 217 217 218 220 222 224 224 222 220 220 223 226 229 233 237 241 245 247 251 258 267 272 275 274 271 267 264 261
221 221 221 221 222 223 224 224 224 223 222 222 221 221 221 220 220 220 222 224 225 223 221 220 223 226 229 234 238 243 247 249 251 257 265 271 274 274 270 266 262 259
223 222 222 223 222 223 224 225 226 226 226 225 225 225 225 224 223 222 223 224 225 224 221 221 223 227 230 235 240 245 249 251 251 255 263 268 270 269 267 264 261 257
224 224 223 224 223 223 225 226 226 227 228 228 228 228 229 228 226 225 224 225 225 224 222 222 224 228 231 236 242 247 251 252 252 256 262 266 266 266 264 261 258 255
227 226 226 225 225 225 226 226 227 228 229 230 230 230 230 230 229 228 227 227 226 226 224 224 226 229 233 238 244 249 251 252 253 257 263 267 266 264 260 256 254 252
228 228 228 228 228 227 227 228 228 229 229 230 230 231 231 231 231 230 229 229 228 228 227 227 228 230 234 240 245 249 252 253 253 257 263 267 265 262 257 253 251 251
231 230 230 230 230 230 230 230 230 230 230 230 230 231 231 231 231 231 231 230 230 230 230 230 231 232 236 241 246 249 251 253 254 257 262 264 264 260 256 252 251 250
233 232 232 232 233 233 233 233 232 232 231 230 229 229 230 231 231 231 231 231 231 231 231 231 232 234 238 243 247 248 250 252 255 258 261 262 263 260 256 254 253 250
237 235 233 233 234 235 236 236 234 233 232 231 229 229 230 230 230 229 230 231 232 231 230 230 232 236 240 244 247 248 250 252 255 257 259 262 263 261 259 256 254 251
240 237 234 233 234 236 237 237 236 234 232 231 230 229 229 228 228 228 229 231 232 231 229 230 233 237 242 246 248 250 251 252 255 257 259 262 263 261 258 255 253 252
240 238 235 233 233 235 236 237 236 234 232 230 229 228 227 227 228 229 230 231 231 229 228 230 235 239 243 246 248 250 251 253 254 257 259 261 261 260 258 256 255 254
240 238 235 233 233 235 236 236 235 233 231 229 228 228 227 227 228 229 229 228 228 228 228 231 236 240 243 245 247 249 251 253 255 257 259 260 260 260 259 258 256 254